FW7889 Weather Reports


time (UTC)temp
F
wind
direction
speed
knots
gust
knots
rain 1hr
in
rain 24hr
in
rain mn
in
humidity
%
barometer
mb
20260906230956 61 296 0.0 0.0 0.00 0.00 0.00 78 1073.1
20260906225954 62 296 0.0 0.9 0.00 0.00 0.00 73 1072.8
20260906224951 63 314 0.9 0.9 0.00 0.00 0.00 71 1073.0
20260906223949 64 301 0.9 0.9 0.00 0.00 0.00 70 1072.6
20260906222949 64 303 0.9 0.9 0.00 0.00 0.00 69 1072.8
20260906221946 65 312 0.9 0.9 0.00 0.00 0.00 67 1072.8
20260906220942 65 326 1.7 1.7 0.00 0.00 0.00 67 1072.7
20260906215942 66 310 0.9 1.7 0.00 0.00 0.00 65 1072.5
20260906214940 66 331 1.7 1.7 0.00 0.00 0.00 64 1072.7
20260906213939 66 169 1.7 1.7 0.00 0.00 0.00 62 1072.5
20260906212937 67 328 1.7 1.7 0.00 0.00 0.00 64 1072.7
20260906211933 67 349 2.6 2.6 0.00 0.00 0.00 65 1072.6
20260906210928 67 254 0.0 0.9 0.00 0.00 0.00 64 1072.4
20260906205924 67 324 0.9 0.9 0.00 0.00 0.00 65 1072.5
20260906204922 67 335 1.7 1.7 0.00 0.00 0.00 65 1072.5
20260906203920 67 102 6.1 7.0 0.00 0.00 0.00 65 1072.4
20260906202919 68 314 0.9 0.9 0.00 0.00 0.00 65 1072.4
20260906201919 66 107 2.6 2.6 0.00 0.00 0.00 68 1072.6
20260906200914 66 76 0.9 1.7 0.00 0.00 0.00 67 1072.5
20260906195911 67 317 1.7 2.6 0.00 0.00 0.00 65 1072.4
20260906194909 67 323 0.9 0.9 0.00 0.00 0.00 64 1072.1
20260906193906 68 320 0.9 1.7 0.00 0.00 0.00 66 1072.2
20260906192902 66 287 0.0 0.9 0.00 0.00 0.00 69 1072.4
20260906191901 66 195 0.9 0.9 0.00 0.00 0.00 70 1072.4
20260906190901 66 124 5.2 6.1 0.00 0.00 0.00 71 1072.5
20260906185901 68 83 6.1 7.8 0.00 0.00 0.00 68 1072.3
20260906184900 68 304 0.9 0.9 0.00 0.00 0.00 67 1072.6
20260906183856 67 117 6.1 7.0 0.00 0.00 0.00 68 1072.6
20260906182853 67 331 3.5 4.3 0.00 0.00 0.00 67 1072.7
20260906181849 67 342 1.7 2.6 0.00 0.00 0.00 68 1072.6
20260906180847 67 132 0.9 0.9 0.00 0.00 0.00 68 1072.6
20260906175844 65 85 4.3 5.2 0.00 0.00 0.00 69 1072.7
20260906174844 66 222 0.9 0.9 0.00 0.00 0.00 70 1072.9
20260906173845 65 149 0.0 0.9 0.00 0.00 0.00 71 1072.8
20260906172839 65 78 2.6 4.3 0.00 0.00 0.00 73 1072.8
20260906171837 65 71 4.3 5.2 0.00 0.00 0.00 74 1072.9
20260906170833 64 118 6.1 6.1 0.00 0.00 0.00 73 1072.7
20260906165831 63 92 6.1 7.0 0.00 0.00 0.00 73 1073.1
20260906164831 63 101 7.8 9.6 0.00 0.00 0.00 75 1072.9
20260906163826 63 61 5.2 7.8 0.00 0.00 0.00 76 1073.3
20260906162826 64 245 1.7 1.7 0.00 0.00 0.00 76 1073.1
20260906161826 62 106 5.2 7.0 0.00 0.00 0.00 79 1073.5
20260906160824 61 306 0.9 0.9 0.00 0.00 0.00 80 1073.1
20260906155823 61 94 4.3 5.2 0.00 0.00 0.00 80 1073.3
20260906154819 61 118 2.6 4.3 0.00 0.00 0.00 81 1073.4
20260906153818 61 104 6.1 7.0 0.00 0.00 0.00 81 1073.3
20260906152813 61 128 7.0 7.0 0.00 0.00 0.00 82 1073.3
20260906151813 62 104 8.7 9.6 0.00 0.00 0.00 80 1073.5
20260906150810 61 113 1.7 2.6 0.00 0.00 0.00 79 1073.0
20260906145811 63 107 0.9 1.7 0.00 0.00 0.00 78 1072.9
20260906144810 62 344 2.6 4.3 0.00 0.00 0.00 79 1073.0
20260906143810 61 83 2.6 5.2 0.00 0.00 0.00 79 1072.9
20260906142808 62 332 2.6 2.6 0.00 0.00 0.00 79 1072.8
20260906141808 61 109 2.6 2.6 0.00 0.00 0.00 81 1072.7
20260906140807 61 68 6.1 7.8 0.00 0.00 0.00 82 1072.8
20260906135806 61 65 4.3 6.1 0.00 0.00 0.00 81 1072.7
20260906134803 61 115 1.7 2.6 0.00 0.00 0.00 84 1072.4
20260906133759 60 88 2.6 2.6 0.00 0.00 0.00 85 1072.7
20260906132756 59 106 4.3 7.0 0.00 0.00 0.00 87 1072.6
20260906131753 59 95 5.2 6.1 0.00 0.00 0.00 89 1072.2
20260906130748 59 116 2.6 2.6 0.00 0.00 0.00 91 1072.5
20260906125748 58 75 5.2 6.1 0.00 0.00 0.00 93 1072.3
20260906124746 58 113 2.6 2.6 0.00 0.00 0.00 96 1072.4
20260906123741 58 90 1.7 1.7 0.00 0.00 0.00 97 1072.5
20260906122736 56 169 0.9 0.9 0.00 0.00 0.00 99 1072.5
20260906121733 55 299 0.0 0.0 0.00 0.00 0.00 99 1072.4
20260906120731 54 308 0.9 0.9 0.00 0.00 0.00 99 1072.2
20260906115729 54 321 0.9 0.9 0.00 0.00 0.00 99 1072.1
20260906114728 54 201 0.0 0.0 0.00 0.00 0.00 99 1071.9
20260906113725 53 291 0.0 0.0 0.00 0.00 0.00 99 1072.0
20260906112724 52 311 0.0 0.9 0.00 0.00 0.00 99 1071.9
20260906111720 51 304 0.9 0.9 0.00 0.00 0.00 99 1072.2
20260906110716 51 298 0.0 0.0 0.00 0.00 0.00 99 1072.3
20260906105716 50 297 0.0 0.0 0.00 0.00 0.00 99 1071.9
20260906104712 50 298 0.0 0.0 0.00 0.00 0.00 99 1071.8
20260906103709 51 302 0.0 0.9 0.00 0.00 0.00 99 1071.5
20260906102706 52 290 0.0 0.0 0.00 0.00 0.00 99 1071.5
20260906101705 51 298 0.0 0.0 0.00 0.00 0.00 99 1071.2
20260906100702 51 303 0.9 0.9 0.00 0.00 0.00 99 1071.1
20260906095702 51 298 0.0 0.0 0.00 0.00 0.00 99 1071.2
20260906094702 51 298 0.0 0.0 0.00 0.00 0.00 99 1071.1
20260906093700 51 289 0.0 0.0 0.00 0.00 0.00 99 1071.1
20260906092656 51 298 0.0 0.9 0.00 0.00 0.00 99 1071.0
20260906091652 52 293 0.9 0.9 0.00 0.00 0.00 99 1071.0
20260906090650 52 289 0.0 0.0 0.00 0.00 0.00 99 1070.8
20260906085648 52 290 0.0 0.0 0.00 0.00 0.00 99 1070.6
20260906084643 53 290 0.0 0.0 0.00 0.00 0.00 99 1070.6
20260906083643 52 293 0.0 0.0 0.00 0.00 0.00 99 1070.3
20260906082640 52 305 0.0 0.0 0.00 0.00 0.00 99 1070.3
20260906081637 52 292 0.0 0.0 0.00 0.00 0.00 99 1070.3
20260906080634 52 290 0.0 0.0 0.00 0.00 0.00 99 1070.0
20260906075629 52 289 0.0 0.0 0.00 0.00 0.00 99 1070.3
20260906074626 52 323 0.0 0.0 0.00 0.00 0.00 99 1070.3
20260906073625 53 287 0.0 0.0 0.00 0.00 0.00 99 1070.1
20260906072622 53 280 0.0 0.0 0.00 0.00 0.00 99 1070.0
20260906071620 53 307 0.0 0.0 0.00 0.00 0.00 99 1070.0
20260906070617 52 275 0.0 0.0 0.00 0.00 0.00 99 1069.9
20260906065612 52 295 0.0 0.0 0.00 0.00 0.00 99 1070.0
20260906064609 52 292 0.0 0.0 0.00 0.00 0.00 99 1069.9
20260906063604 52 297 0.0 0.0 0.00 0.00 0.00 99 1069.7
20260906062602 52 292 0.0 0.0 0.00 0.00 0.00 99 1069.8
20260906061557 53 292 0.0 0.0 0.00 0.00 0.00 99 1069.7
20260906060553 53 271 0.0 0.0 0.00 0.00 0.00 99 1069.6
20260906055551 53 285 0.0 0.0 0.00 0.00 0.00 99 1069.7
20260906054547 53 289 0.0 0.0 0.00 0.00 0.00 99 1069.4
20260906053544 54 292 0.0 0.0 0.00 0.00 0.00 99 1069.6
20260906052540 54 276 0.0 0.0 0.00 0.00 0.00 99 1069.4
20260906051538 54 272 0.0 0.0 0.00 0.00 0.00 99 1069.6
20260906050534 55 281 0.0 0.0 0.00 0.00 0.00 99 1069.7
20260906045534 55 275 0.0 0.0 0.00 0.00 0.00 99 1069.7
20260906044530 55 276 0.0 0.0 0.00 0.00 0.00 99 1069.7
20260906043527 56 276 0.0 0.0 0.00 0.00 0.00 99 1069.7
20260906042528 56 276 0.0 0.0 0.00 0.00 0.00 99 1069.8
20260906041525 56 291 0.0 0.0 0.00 0.00 0.00 99 1069.4
20260906040526 57 288 0.0 0.0 0.00 0.00 0.00 99 1069.5
20260906035522 57 304 0.0 0.0 0.00 0.00 0.00 99 1069.6
20260906034518 57 281 0.0 0.0 0.00 0.00 0.00 99 1069.5
20260906033514 57 285 0.0 0.0 0.00 0.00 0.00 99 1069.5
20260906032512 57 286 0.0 0.0 0.00 0.00 0.00 99 1069.4
20260906031508 57 270 0.0 0.0 0.00 0.00 0.00 99 1069.3
20260906030503 57 281 0.0 0.0 0.00 0.00 0.00 99 1069.0
20260906025502 58 275 0.0 0.0 0.00 0.00 0.00 99 1069.3
20260906024501 58 275 0.0 0.0 0.00 0.00 0.00 99 1069.0
20260906023458 58 284 0.0 0.0 0.00 0.00 0.00 99 1069.2
20260906022454 58 289 0.0 0.0 0.00 0.00 0.00 99 1069.1
20260906021449 58 291 0.0 0.0 0.00 0.00 0.00 99 1069.2
20260906020444 58 290 0.0 0.0 0.00 0.00 0.00 99 1069.2
20260906015443 58 285 0.0 0.0 0.00 0.00 0.00 99 1069.3
20260906014443 59 286 0.0 0.0 0.00 0.00 0.00 99 1069.2
20260906013440 59 289 0.0 0.0 0.00 0.00 0.00 99 1069.1
20260906012436 60 293 0.9 0.9 0.00 0.00 0.00 98 1069.1
20260906011431 61 285 0.0 0.0 0.00 0.00 0.00 96 1069.2
20260906010427 62 67 0.9 0.9 0.00 0.00 0.00 97 1069.5
20260906005423 61 281 0.0 0.0 0.00 0.00 0.00 97 1069.3
20260906004422 61 283 0.0 0.0 0.00 0.00 0.00 98 1069.3
20260906003419 61 284 0.0 0.0 0.00 0.00 0.00 98 1069.2
20260906002419 61 284 0.0 0.0 0.00 0.00 0.00 97 1069.2
20260906001416 62 283 0.0 0.0 0.00 0.00 0.00 96 1068.9
20260906000411 63 283 0.0 0.0 0.00 0.00 0.00 95 1069.0
20260905235406 63 284 0.0 0.0 0.00 0.00 0.00 93 1069.1
20260905234402 63 287 0.0 0.0 0.00 0.00 0.00 93 1069.2
20260905233358 63 290 0.9 0.9 0.00 0.00 0.00 94 1068.9
20260905232354 62 284 0.0 0.0 0.00 0.00 0.00 95 1068.8